Hourly Weather Al Hufuf

Today, 1 December, Tuesday

Time Temperature Precipitation Wind Pressure Humidity
00:00 +19°C° 0 mm 4 mps 750 mmHg 95%
01:00 +19°C° 0 mm 4 mps 750 mmHg 92%
02:00 +19°C° 0 mm 4 mps 749 mmHg 89%
03:00 +20°C° 0 mm 3 mps 749 mmHg 91%
04:00 +19°C° 0 mm 3 mps 749 mmHg 90%
05:00 +19°C° 0 mm 3 mps 750 mmHg 89%
06:00 +19°C° 0 mm 3 mps 750 mmHg 88%
07:00 +20°C° 0 mm 3 mps 751 mmHg 85%
08:00 +21°C° 0 mm 3 mps 751 mmHg 82%
09:00 +22°C° 0 mm 3 mps 751 mmHg 79%
10:00 +24°C° 0 mm 3 mps 751 mmHg 73%
11:00 +25°C° 0 mm 3 mps 751 mmHg 68%
12:00 +26°C° 0 mm 2 mps 750 mmHg 62%
13:00 +27°C° 0 mm 2 mps 750 mmHg 59%
14:00 +27°C° 0 mm 3 mps 749 mmHg 56%
15:00 +28°C° 0 mm 3 mps 749 mmHg 53%
16:00 +27°C° 0.1 mm 4 mps 749 mmHg 59%
17:00 +25°C° 0.1 mm 4 mps 749 mmHg 64%
18:00 +23°C° 0.1 mm 5 mps 750 mmHg 70%
19:00 +23°C° 0 mm 4 mps 750 mmHg 74%
20:00 +22°C° 0 mm 4 mps 750 mmHg 77%
21:00 +22°C° 0 mm 3 mps 750 mmHg 80%
22:00 +21°C° 0 mm 2 mps 750 mmHg 83%
23:00 +21°C° 0 mm 2 mps 750 mmHg 85%

Tomorrow, 2 December, Wednesday

Time Temperature Precipitation Wind Pressure Humidity
00:00 +21°C° 0 mm 2 mps 750 mmHg 87%
01:00 +21°C° 0 mm 2 mps 750 mmHg 88%
02:00 +21°C° 0 mm 2 mps 750 mmHg 89%
03:00 +21°C° 0 mm 2 mps 750 mmHg 90%
04:00 +20°C° 0 mm 2 mps 750 mmHg 91%
05:00 +20°C° 0 mm 2 mps 750 mmHg 92%
06:00 +19°C° 0 mm 2 mps 750 mmHg 93%
07:00 +21°C° 0 mm 2 mps 751 mmHg 86%
08:00 +23°C° 0 mm 1 mps 751 mmHg 80%
09:00 +24°C° 0 mm 1 mps 751 mmHg 73%
10:00 +26°C° 0 mm 1 mps 750 mmHg 65%
11:00 +27°C° 0 mm 2 mps 750 mmHg 57%
12:00 +28°C° 0 mm 2 mps 749 mmHg 49%
13:00 +29°C° 0 mm 2 mps 749 mmHg 47%
14:00 +29°C° 0 mm 2 mps 748 mmHg 44%
15:00 +29°C° 0 mm 2 mps 748 mmHg 42%
16:00 +28°C° 0 mm 2 mps 748 mmHg 47%
17:00 +26°C° 0 mm 2 mps 748 mmHg 53%
18:00 +25°C° 0 mm 2 mps 748 mmHg 58%
19:00 +24°C° 0 mm 2 mps 749 mmHg 63%
20:00 +23°C° 0 mm 2 mps 749 mmHg 68%
21:00 +23°C° 0 mm 2 mps 749 mmHg 73%
22:00 +21°C° 0 mm 2 mps 749 mmHg 76%
23:00 +21°C° 0 mm 2 mps 749 mmHg 80%

Day after tomorrow, 3 December, Thursday

Time Temperature Precipitation Wind Pressure Humidity
00:00 +21°C° 0 mm 2 mps 749 mmHg 83%
01:00 +21°C° 0 mm 1 mps 749 mmHg 85%
02:00 +20°C° 0 mm 1 mps 749 mmHg 87%
03:00 +18°C° 0 mm 0 mps 748 mmHg 90%
04:00 +18°C° 0 mm 0 mps 749 mmHg 89%
05:00 +20°C° 0 mm 1 mps 749 mmHg 88%
06:00 +20°C° 0 mm 1 mps 749 mmHg 88%
07:00 +22°C° 0 mm 1 mps 750 mmHg 77%
08:00 +24°C° 0 mm 2 mps 750 mmHg 66%
09:00 +27°C° 0 mm 2 mps 751 mmHg 55%
10:00 +28°C° 0 mm 2 mps 750 mmHg 49%
11:00 +29°C° 0 mm 2 mps 750 mmHg 43%
12:00 +31°C° 0 mm 2 mps 750 mmHg 37%
13:00 +31°C° 0 mm 2 mps 749 mmHg 35%
14:00 +31°C° 0 mm 1 mps 749 mmHg 34%
15:00 +32°C° 0 mm 1 mps 748 mmHg 32%
16:00 +30°C° 0 mm 2 mps 748 mmHg 39%
17:00 +28°C° 0 mm 3 mps 749 mmHg 45%
18:00 +26°C° 0 mm 4 mps 749 mmHg 52%
19:00 +25°C° 0 mm 4 mps 749 mmHg 60%
20:00 +24°C° 0 mm 3 mps 749 mmHg 67%
21:00 +22°C° 0 mm 3 mps 749 mmHg 75%
22:00 +22°C° 0 mm 3 mps 749 mmHg 79%
23:00 +21°C° 0 mm 3 mps 749 mmHg 83%

4 December, Friday

Time Temperature Precipitation Wind Pressure Humidity
00:00 +21°C° 0 mm 2 mps 749 mmHg 87%
01:00 +21°C° 0 mm 2 mps 749 mmHg 88%
02:00 +20°C° 0 mm 2 mps 748 mmHg 89%
03:00 +21°C° 0 mm 1 mps 748 mmHg 90%
04:00 +20°C° 0 mm 1 mps 748 mmHg 90%
05:00 +20°C° 0 mm 1 mps 748 mmHg 90%
06:00 +20°C° 0 mm 1 mps 748 mmHg 90%
07:00 +22°C° 0 mm 1 mps 749 mmHg 81%
08:00 +24°C° 0 mm 2 mps 749 mmHg 73%
09:00 +26°C° 0 mm 2 mps 750 mmHg 65%
10:00 +27°C° 0 mm 2 mps 749 mmHg 57%
11:00 +28°C° 0 mm 2 mps 749 mmHg 49%
12:00 +30°C° 0 mm 2 mps 748 mmHg 42%
13:00 +30°C° 0 mm 2 mps 748 mmHg 40%
14:00 +31°C° 0 mm 2 mps 748 mmHg 38%
15:00 +31°C° 0 mm 2 mps 747 mmHg 36%
16:00 +29°C° 0 mm 3 mps 747 mmHg 48%
17:00 +27°C° 0 mm 4 mps 747 mmHg 59%
18:00 +23°C° 0 mm 5 mps 748 mmHg 71%
19:00 +23°C° 0 mm 5 mps 748 mmHg 77%
20:00 +22°C° 0 mm 5 mps 748 mmHg 83%
21:00 +22°C° 0 mm 4 mps 748 mmHg 88%
22:00 +21°C° 0 mm 4 mps 748 mmHg 90%
23:00 +21°C° 0 mm 3 mps 748 mmHg 91%

5 December, Saturday

Time Temperature Precipitation Wind Pressure Humidity
00:00 +21°C° 0 mm 3 mps 748 mmHg 92%
01:00 +20°C° 0 mm 2 mps 747 mmHg 93%
02:00 +20°C° 0 mm 2 mps 747 mmHg 94%
03:00 +20°C° 0 mm 2 mps 747 mmHg 95%
04:00 +20°C° 0 mm 2 mps 747 mmHg 94%
05:00 +20°C° 0 mm 2 mps 747 mmHg 94%
06:00 +19°C° 0 mm 2 mps 747 mmHg 94%
07:00 +21°C° 0 mm 2 mps 748 mmHg 86%
08:00 +23°C° 0 mm 2 mps 748 mmHg 78%
09:00 +25°C° 0 mm 2 mps 749 mmHg 70%
10:00 +26°C° 0 mm 2 mps 748 mmHg 63%
11:00 +27°C° 0 mm 2 mps 747 mmHg 56%
12:00 +29°C° 0 mm 1 mps 747 mmHg 49%
13:00 +29°C° 0 mm 1 mps 746 mmHg 46%
14:00 +30°C° 0 mm 2 mps 746 mmHg 43%
15:00 +30°C° 0 mm 2 mps 745 mmHg 41%
16:00 +29°C° 0 mm 3 mps 745 mmHg 50%
17:00 +27°C° 0 mm 3 mps 745 mmHg 60%
18:00 +25°C° 0 mm 4 mps 745 mmHg 69%
19:00 +23°C° 0 mm 4 mps 745 mmHg 74%
20:00 +23°C° 0 mm 4 mps 745 mmHg 79%
21:00 +22°C° 0 mm 4 mps 745 mmHg 85%
22:00 +22°C° 0 mm 3 mps 745 mmHg 86%
23:00 +21°C° 0 mm 3 mps 745 mmHg 87%

6 December, Sunday

Time Temperature Precipitation Wind Pressure Humidity
00:00 +21°C° 0 mm 2 mps 745 mmHg 88%
01:00 +21°C° 0 mm 2 mps 745 mmHg 88%
02:00 +21°C° 0 mm 1 mps 745 mmHg 89%
03:00 +20°C° 0 mm 1 mps 745 mmHg 90%
04:00 +20°C° 0 mm 1 mps 745 mmHg 90%
05:00 +20°C° 0 mm 1 mps 745 mmHg 90%
06:00 +20°C° 0 mm 1 mps 745 mmHg 90%
07:00 +22°C° 0 mm 1 mps 746 mmHg 79%
08:00 +24°C° 0 mm 2 mps 746 mmHg 68%
09:00 +26°C° 0 mm 3 mps 746 mmHg 57%
10:00 +28°C° 0 mm 3 mps 746 mmHg 48%
11:00 +30°C° 0 mm 4 mps 745 mmHg 39%
12:00 +33°C° 0 mm 5 mps 745 mmHg 30%
13:00 +33°C° 0 mm 5 mps 744 mmHg 27%
14:00 +34°C° 0 mm 5 mps 744 mmHg 25%
15:00 +35°C° 0 mm 4 mps 744 mmHg 22%
16:00 +32°C° 0 mm 5 mps 744 mmHg 35%
17:00 +28°C° 0 mm 6 mps 744 mmHg 48%
18:00 +24°C° 0 mm 7 mps 744 mmHg 61%
19:00 +23°C° 0 mm 7 mps 745 mmHg 68%
20:00 +23°C° 0 mm 7 mps 745 mmHg 75%
21:00 +22°C° 0 mm 7 mps 746 mmHg 82%
22:00 +22°C° 0.3 mm 7 mps 746 mmHg 80%
23:00 +22°C° 0.3 mm 7 mps 746 mmHg 78%
Show more